EHI
1 1 0 0 0 0 0 0 0 0 0 0 0 0 0 0 0 0 0 0 0 0 0 0 0 0 0 1 2 2 2 2 2 2 2 2 2 2
2 2 1 1 1 0 0 0 0 0 0 0 0 0 0 0 0 0 0 0 0 0 0 0 0 0 0 0 1 1 1 1 1 1 1 1 1 1
3 3 3 2 2 1 0 0 0 0 0 0 0 0 0 0 0 0 0 0 0 0 0 0 0 0 0 0 0 0 0 0 0 0 0 0 0 0
4 3 3 3 3 2 1 1 1 0 0 0 0 0 0 0 0 0 0 0 0 0 0 0 0 0 0 0 0 0 0 0 0 0 0 0 0 0
4 3 3 2 2 2 2 2 1 0 0 0 0 0 0 0 0 0 0 0 0 0 0 0 0 0 0 0 0 0 0 0 0 0 0 0 0 0
4 3 2 1 1 1 1 1 1 0 0 0 0 0 0 0 0 0 0 0 0 0 0 0 0 0 0 0 0 0 0 0 0 0 0 0 0 0
2 2 2 1 0 0 0 0 0 0 0 0 0 0 0 0 0 0 0 0 0 0 0 0 0 0 0 0 0 0 0 0 0 0 0 0 0 0
1 1 1 1 0 0 0 0 0 0 0 0 0 0 0 0 0 0 0 0 0 0 0 0 0 0 0 0 0 0 0 0 0 0 0 0 0 0
0 0 0 0 0 0 0 0 0 0 0 0 0 0 0 0 0 0 0 0 0 0 0 0 0 0 0 0 0 0 0 0 0 0 0 0 0 0
0 0 0 0 0 0 0 0 0 0 0 0 0 0 0 0 0 0 0 0 0 0 0 0 0 0 0 0 0 0 0 0 0 0 0 0 0 0
0 0 0 0 0 0 0 0 0 0 0 0 0 0 0 0 0 0 0 0 0 0 0 0 0 0 0 0 0 0 0 0 0 0 0 0 0 0
0 0 0 0 0 0 0 0 0 0 0 0 0 0 0 0 0 0 0 0 0 0 0 0 0 0 0 0 0 0 0 0 0 0 0 0 0 0
0 0 0 0 0 0 0 0 0 0 0 0 0 0 0 0 0 0 0 0 0 0 0 0 0 0 0 0 0 0 0 0 0 0 0 0 0 0
0 0 0 0 0 0 0 0 0 0 0 0 0 0 0 0 0 0 0 0 0 0 0 0 0 0 0 0 0 0 0 0 0 0 0 0 0 0
0 0 0 0 0 0 0 0 0 0 0 0 0 0 0 0 0 0 0 0 0 0 0 0 0 0 0 0 0 0 0 0 0 0 0 0 0 0
0 0 0 0 0 0 0 0 0 0 0 0 0 0 0 0 0 0 0 0 0 0 0 0 0 0 0 0 0 0 0 0 0 0 0 0 0 0
0 0 0 0 0 0 0 0 0 0 0 0 0 0 0 0 0 0 0 0 0 0 0 0 0 0 0 0 0 0 0 0 0 0 0 0 0 0
0 0 0 0 0 0 0 0 0 0 0 0 0 0 0 0 0 0 0 0 0 0 0 0 0 0 0 0 0 0 0 0 0 0 0 0 0 0
0 0 0 0 0 0 0 0 0 0 0 0 0 0 0 0 0 0 0 0 0 0 0 0 0 0 0 0 0 0 0 0 0 0 0 0 0 0
0 0 0 0 0 0 0 0 0 0 0 0 0 0 0 0 0 0 0 0 0 0 0 0 0 0 0 0 0 0 0 0 0 0 0 0 0 0
0 0 0 0 0 0 0 0 0 0 0 0 0 0 0 0 0 0 0 0 0 0 0 0 0 0 0 0 0 0 0 0 0 0 0 0 0 0
0 0 0 0 0 0 0 0 0 0 0 0 0 0 0 0 0 0 0 0 0 0 0 0 0 0 0 0 0 0 0 0 0 0 0 0 0 0
0 0 0 0 0 0 0 0 0 0 0 0 0 0 0 0 0 0 0 0 0 0 0 0 0 0 0 0 0 0 0 0 0 0 0 0 0 0
Wind_Speed
6 6 5 4 3 3 3 4 4 3 4 4 3 4 5 4 7 7 6 11 14 14 14 14 14 13 13 13 12 12 11 11 11 10 10 10 10 10
5 6 5 4 3 3 3 3 4 5 4 4 4 3 4 5 6 6 7 10 13 13 14 14 14 14 13 13 13 12 12 12 11 11 11 10 10 10
6 7 7 6 4 4 3 3 3 4 5 4 3 2 2 3 3 4 4 5 6 12 13 13 14 14 13 13 13 12 12 12 11 11 11 10 10 10
7 7 7 5 6 5 4 4 4 4 5 5 3 2 3 4 4 4 4 5 5 9 11 12 12 13 13 13 12 12 12 11 11 10 10 10 10 10
7 6 6 6 6 5 5 5 4 4 4 4 4 3 2 2 2 3 3 3 4 6 8 10 11 11 12 11 11 11 11 11 11 10 10 10 10 10
6 6 7 6 7 6 5 6 5 4 3 3 3 2 2 2 1 2 2 3 4 4 4 5 7 9 10 10 10 11 11 11 11 11 11 10 10 10
5 6 7 8 9 8 6 5 5 4 3 3 3 2 2 2 3 2 3 3 3 2 2 2 2 3 5 8 10 11 11 12 12 11 11 11 11 11
5 5 6 6 8 10 10 9 8 6 6 5 4 4 5 4 3 3 3 2 3 2 2 3 2 3 4 4 7 9 11 11 11 11 11 11 11 11
4 4 4 4 5 4 5 7 7 8 8 6 6 6 5 5 4 3 3 3 4 3 2 3 2 3 3 4 7 8 9 10 10 10 11 10 10 10
2 2 3 2 2 3 3 3 3 3 5 4 5 5 4 4 4 5 4 3 2 1 2 2 2 3 3 3 5 8 8 8 9 9 9 9 9 10
1 1 1 2 2 3 3 3 2 2 2 3 4 3 3 2 2 2 2 2 2 2 1 2 2 2 2 3 3 5 6 7 8 8 8 9 9 8
1 1 1 0 0 1 2 2 2 2 1 0 0 1 1 0 1 2 2 2 2 2 2 2 1 1 1 2 2 2 2 5 6 7 7 8 7 3
1 1 2 3 2 1 1 1 2 1 1 1 1 0 1 1 0 1 1 2 2 3 2 1 1 1 2 2 2 2 1 2 2 3 5 6 6 4
1 1 2 5 5 3 2 2 2 2 1 1 1 0 0 1 1 1 1 2 2 4 3 2 2 2 2 2 2 2 2 2 2 2 2 3 5 6
3 4 5 6 6 5 6 6 4 2 1 1 0 1 1 1 1 1 1 1 1 2 2 1 2 1 2 3 2 2 2 2 1 1 2 2 2 2
4 5 7 7 6 5 5 5 3 3 2 1 1 1 2 2 1 1 1 0 1 2 3 2 1 2 2 2 2 2 2 2 2 2 2 2 2 2
3 4 5 4 5 4 4 4 4 4 3 2 2 2 2 2 2 2 1 0 0 1 2 2 2 1 2 2 2 2 2 2 2 2 2 2 3 3
6 5 5 5 5 4 4 4 4 4 3 3 3 2 2 2 2 2 1 0 1 1 1 1 1 2 2 2 2 2 2 2 2 2 1 2 3 3
7 6 5 4 4 4 4 4 4 4 3 3 3 3 3 2 2 2 2 2 2 2 2 1 1 1 1 3 4 2 2 3 2 2 2 2 3 4
6 5 5 4 4 4 4 4 4 4 4 4 4 4 3 3 3 3 3 2 2 2 2 2 1 1 2 3 3 4 3 2 2 2 2 2 3 4
5 5 4 4 4 4 4 4 5 4 5 4 4 4 4 3 3 3 3 4 3 2 3 3 4 4 2 1 2 3 4 4 3 2 2 2 3 2
5 4 4 4 4 4 4 4 4 5 5 4 4 4 4 3 3 4 3 3 3 2 2 3 4 3 2 1 2 3 4 4 4 4 3 3 2 2
4 4 4 4 4 4 4 4 5 4 4 4 4 4 4 3 3 3 3 3 3 3 3 3 3 3 2 2 3 3 4 4 3 3 4 5 5 5
Wind_Direction
213 211 213 218 207 200 189 176 175 212 251 251 248 233 214 211 216 210 213 217 218 220 221 223 223 224 225 226 227 230 232 234 237 239 241 245 249 252
213 213 219 221 214 204 198 193 187 192 230 242 233 237 218 215 210 205 212 217 220 221 222 223 223 225 226 228 230 231 232 234 235 237 238 239 242 247
218 215 222 216 210 211 205 200 202 191 224 255 245 244 212 215 208 212 215 216 226 226 226 226 226 227 228 229 231 232 233 234 235 235 235 236 239 244
218 217 222 216 215 216 211 214 216 205 209 236 249 237 224 215 206 211 218 217 222 228 224 226 229 229 227 228 229 230 231 231 233 233 234 236 239 242
211 213 220 214 223 223 219 222 224 223 210 215 236 234 237 225 201 227 225 231 228 231 221 225 229 229 227 227 230 231 232 233 235 236 238 239 240 243
212 213 215 211 220 223 227 229 224 223 214 209 225 232 232 232 172 209 242 236 240 240 226 217 225 229 230 229 233 234 232 232 235 236 237 238 240 243
218 219 221 217 219 220 224 221 215 217 212 211 223 222 226 204 210 206 223 242 254 239 228 234 220 227 228 230 233 233 232 231 232 233 234 236 238 239
219 227 228 226 228 226 229 223 210 210 211 211 217 218 227 218 211 204 206 211 256 246 194 244 204 229 232 221 225 227 229 231 233 233 235 236 238 240
217 224 233 236 227 230 240 240 236 230 213 205 212 220 218 212 198 205 205 203 225 232 179 241 227 238 243 238 229 228 230 233 235 237 238 237 237 240
227 223 222 244 240 220 219 225 236 242 227 217 218 225 221 215 204 207 205 208 243 261 177 225 238 241 253 244 239 229 231 235 237 238 240 239 239 241
287 239 209 221 249 215 193 210 229 249 235 210 212 222 225 219 189 160 174 177 241 260 208 201 237 242 255 254 256 241 239 241 244 245 245 245 245 245
18 12 39 106 336 180 183 190 216 245 206 134 169 258 251 239 153 170 193 201 215 250 239 192 230 198 283 285 280 268 254 258 256 252 250 249 245 233
62 20 14 44 54 89 135 190 215 196 147 144 128 59 28 14 333 214 202 195 209 238 239 184 210 196 199 268 297 278 249 260 261 256 252 253 244 216
75 36 36 46 49 51 60 72 94 94 92 95 89 354 311 295 280 260 239 229 228 240 246 188 202 205 200 238 271 292 290 271 251 251 260 261 249 241
60 50 45 52 57 54 52 53 51 54 69 86 77 274 263 259 275 304 319 285 288 291 293 235 211 223 206 222 242 258 286 292 274 268 270 258 246 235
51 49 48 50 53 49 44 42 42 48 57 45 16 351 355 353 333 303 282 312 353 323 328 323 251 207 227 242 239 255 244 255 277 278 276 275 264 235
71 54 46 43 44 40 41 39 36 37 35 21 17 11 6 358 339 338 354 53 7 302 319 332 326 289 238 229 243 258 264 266 261 269 278 284 276 261
75 62 53 48 46 42 41 35 32 29 21 19 20 18 9 358 347 347 358 359 292 289 294 314 348 360 355 322 237 238 265 262 266 266 246 260 279 283
69 63 56 49 44 38 39 37 27 17 19 24 21 14 11 8 360 355 357 358 340 321 313 318 347 54 335 307 299 251 235 266 276 279 264 248 259 273
63 65 58 51 45 37 35 33 27 24 25 24 23 18 15 13 9 359 354 353 339 331 330 327 319 273 246 261 275 291 272 252 265 277 283 287 278 287
62 60 55 50 46 40 38 37 35 30 25 23 19 14 10 9 5 357 354 354 353 346 341 326 310 312 297 350 323 305 299 287 264 252 265 297 308 315
63 60 53 50 46 42 40 37 34 27 20 18 11 7 4 5 2 360 358 356 345 335 324 316 327 343 358 333 300 295 301 311 314 310 276 237 234 249
64 62 56 50 43 41 41 39 36 23 14 5 0 357 356 355 349 351 352 348 343 341 335 332 339 345 332 309 299 297 301 308 320 335 322 315 292 275